COSMOS 2522 (752) (42939 NORAD) Tracking and Keplerian Element Data

This shows tracking and keplerian element data for the satellite.

Feedback or suggestion? Click here.




ElementValue
Catalog42939
NameCOSMOS 2522 (752)
Epoch Orbit1228
Epoch Day111.42251863
Epoch Year2019
RAAN281.6968
Inclination64.5254
Eccentricity0.0005051
Argument of Perigee245.6524
Mean Anonmoly169.9583
Mean Motion2.13101886
Decay Rate-1.3E-07
L11 42939U 17055A 19111.42251863 -.00000013 00000-0 00000+0 0 9993
L22 42939 64.5254 281.6968 0005051 245.6524 169.9583 2.13101886 12288

Live tracking and technical data element details for COSMOS 2522 (752) (NORAD 42939). COSMOS 2522 (752) can be tracked NOW for your location showing map with azimuth and elevation plus other details from your city location.

Track the satellite on the map from your city or location and see movement details for azimuth, elevation, latitude, longitude, range, height, and movement on the map or in text.







IsCatalogInMostPopularTable: catalog: 42939, numindb: 231
Update: records affected: 1



GetName: 42939 COSMOS 2522 (752)

Hit Count: updated at: Tue, 23 Apr 2019 02:03:42 GMT